User: anonymous   Login
Location: Newark
(44.9333°N, 0.5667°E)
Time: 13:23:55
(UTC+00:00)
Language:

FALCONSAT 3 - Orbit

View from above orbital plane
View from above orbital plane
View from above satellite
View from above satellite

Ground track
Ground track

The orbit data is extracted from the following two-line orbital elements,

1 30776U 07006E   20048.90860777 +.00002026 +00000-0 +55688-4 0  9990
2 30776 035.4354 330.9293 0002521 192.9053 167.1610 15.37224842718272
Epoch (UTC): 17 February 2020 21:48:23
Eccentricity: 0.0002521
inclination: 35.4354°
perigee height: 452 km
apogee height: 456 km
right ascension of ascending node: 330.9293°
argument of perigee: 192.9053°
revolutions per day: 15.37224842
mean anomaly at epoch: 167.1610°
orbit number at epoch: 71827

The dashed part of the orbit path shows where the satellite is in the earth's shadow,  

DLR